Location: Écuvilly
(49.6505°N, 2.9206°E)
Time: 17:39:17
(UTC+00:00)

SPOT 1/Viking Rocket - Pass Details

Date: 17 November 2025
Orbit: 773 x 789 km, 98.2° (Epoch: 09 December)

Event Time Altitude Azimuth Distance (km) Brightness Sun altitude
Rises 17:11:53 0° 143° (SE) 3,259 6.5 -11.1°
Reaches altitude 10° 17:14:17 10° 136° (SE) 2,338 5.7 -11.5°
Maximum altitude 17:19:08 43° 67° (ENE) 1,104 3.9 -12.2°
Drops below altitude 10° 17:24:01 10° 357° (N) 2,361 5.9 -13.0°
Sets 17:26:27 0° 351° (N) 3,296 6.7 -13.4°
